SUD011 UTDD-VILH

Flight info

Callsign SUD011
Flight time 1h 19m
Altitude 39000
Route JD1A JD A238 RAMAN DCT MOTMO DCT GT DCT LEH
Aircraft A320/M-SDFGHILORVWY/S

Departure

Time 2026-04-22 12:33
Airport Dushanbe International Airport (UTDD)

Arrival

Time 2026-04-22 13:53
Airport Leh Kushok Bakula Rimpochee Airport (VILH)
Time Latitude Longitude Altitude Speed Heading
2026-04-22 12:25 38.54775 68.80924 2598 ft 0 kts
2026-04-22 12:26 38.54762 68.80924 2592 ft 4 kts
2026-04-22 12:26 38.54735 68.80923 2590 ft 4 kts 356°
2026-04-22 12:26 38.54708 68.80926 2591 ft 4 kts 351°
2026-04-22 12:27 38.54682 68.80934 2593 ft 4 kts 339°
2026-04-22 12:27 38.54674 68.80938 2593 ft 0 kts 339°
2026-04-22 12:29 38.54680 68.80932 2593 ft 1 kts 309°
2026-04-22 12:29 38.54685 68.80889 2599 ft 10 kts 271°
2026-04-22 12:29 38.54685 68.80760 2600 ft 19 kts 272°
2026-04-22 12:30 38.54608 68.80670 2602 ft 8 kts 179°
2026-04-22 12:30 38.54547 68.80670 2602 ft 10 kts 180°
2026-04-22 12:30 38.54477 68.80670 2601 ft 11 kts 180°
2026-04-22 12:31 38.54400 68.80668 2601 ft 12 kts 181°
2026-04-22 12:31 38.54369 68.80726 2601 ft 7 kts 89°
2026-04-22 12:31 38.54370 68.80761 2601 ft 0 kts 90°
2026-04-22 12:32 38.54371 68.80857 2600 ft 40 kts 90°
2026-04-22 12:32 38.54369 68.81562 2584 ft 115 kts 90°
2026-04-22 12:33 38.54369 68.82848 2587 ft 170 kts 90°
2026-04-22 12:33 38.54355 68.84385 3149 ft 176 kts 92°
2026-04-22 12:33 38.54312 68.85966 3749 ft 181 kts 92°
2026-04-22 12:33 38.54276 68.87595 4233 ft 187 kts 91°
2026-04-22 12:34 38.54278 68.89347 4467 ft 208 kts 90°
2026-04-22 12:34 38.54286 68.91290 4644 ft 229 kts 90°
2026-04-22 12:34 38.54295 68.93408 4832 ft 249 kts 90°
2026-04-22 12:34 38.54306 68.95705 5064 ft 269 kts 90°
2026-04-22 12:35 38.54316 68.98135 5574 ft 276 kts 89°
2026-04-22 12:35 38.54328 69.00614 6294 ft 281 kts 90°
2026-04-22 12:35 38.54339 69.03101 7297 ft 282 kts 91°
2026-04-22 12:35 38.54345 69.05634 8180 ft 289 kts 90°
2026-04-22 12:36 38.54351 69.08230 9061 ft 296 kts 90°
2026-04-22 12:36 38.54356 69.10890 9931 ft 302 kts 90°
2026-04-22 12:36 38.54359 69.13632 10362 ft 325 kts 90°
2026-04-22 12:36 38.54362 69.16660 10689 ft 349 kts 90°
2026-04-22 12:37 38.54367 69.19795 11223 ft 362 kts 90°
2026-04-22 12:37 38.54377 69.23086 11986 ft 369 kts 91°
2026-04-22 12:37 38.54224 69.26328 12729 ft 374 kts 102°
2026-04-22 12:37 38.53503 69.29521 13477 ft 376 kts 116°
2026-04-22 12:38 38.52205 69.32422 14187 ft 376 kts 130°
2026-04-22 12:38 38.50427 69.34859 14864 ft 375 kts 144°
2026-04-22 12:38 38.48326 69.36826 15555 ft 376 kts 149°
2026-04-22 12:38 38.46170 69.38747 16278 ft 380 kts 149°
2026-04-22 12:39 38.43992 69.40685 16966 ft 384 kts 149°
2026-04-22 12:39 38.39549 69.44636 18323 ft 392 kts 150°
2026-04-22 12:39 38.37299 69.46635 18915 ft 396 kts 150°
2026-04-22 12:40 38.35024 69.48656 19492 ft 400 kts 150°
2026-04-22 12:40 38.32737 69.50691 20081 ft 403 kts 150°
2026-04-22 12:40 38.30429 69.52745 20672 ft 407 kts 151°
2026-04-22 12:40 38.28101 69.54813 21271 ft 411 kts 151°
2026-04-22 12:41 38.25739 69.56908 21860 ft 415 kts 151°
2026-04-22 12:41 38.23360 69.59017 22422 ft 419 kts 152°
2026-04-22 12:41 38.20954 69.61149 22958 ft 422 kts 151°
2026-04-22 12:41 38.18540 69.63289 23498 ft 426 kts 151°
2026-04-22 12:42 38.16103 69.65447 23956 ft 428 kts 151°
2026-04-22 12:42 38.13639 69.67621 24436 ft 431 kts 151°
2026-04-22 12:42 38.11180 69.69791 24916 ft 432 kts 151°
2026-04-22 12:42 38.08707 69.71973 25389 ft 433 kts 151°
2026-04-22 12:43 38.06233 69.74153 25815 ft 434 kts 151°
2026-04-22 12:43 38.03740 69.76348 26281 ft 436 kts 151°
2026-04-22 12:43 38.01241 69.78506 26699 ft 434 kts 154°
2026-04-22 12:43 37.98568 69.80246 27132 ft 429 kts 163°
2026-04-22 12:44 37.95760 69.81419 27526 ft 424 kts 172°
2026-04-22 12:44 37.92873 69.82167 27940 ft 423 kts 174°
2026-04-22 12:44 37.90019 69.82880 28341 ft 425 kts 174°
2026-04-22 12:44 37.87076 69.83620 28732 ft 426 kts 174°
2026-04-22 12:45 37.84165 69.84354 29092 ft 428 kts 174°
2026-04-22 12:45 37.81282 69.85081 29430 ft 429 kts 174°
2026-04-22 12:45 37.78343 69.85821 29743 ft 431 kts 173°
2026-04-22 12:45 37.75394 69.86559 30034 ft 433 kts 174°
2026-04-22 12:46 37.72430 69.87298 30297 ft 435 kts 174°
2026-04-22 12:46 37.69453 69.88043 30559 ft 437 kts 174°
2026-04-22 12:46 37.66472 69.88847 30825 ft 440 kts 169°
2026-04-22 12:46 37.63585 69.90210 31165 ft 447 kts 160°
2026-04-22 12:47 37.60903 69.92247 31500 ft 455 kts 149°
2026-04-22 12:47 37.58518 69.94925 31821 ft 463 kts 139°
2026-04-22 12:47 37.56456 69.98047 32160 ft 465 kts 135°
2026-04-22 12:47 37.54415 70.01214 32539 ft 464 kts 135°
2026-04-22 12:48 37.52380 70.04356 32836 ft 463 kts 135°
2026-04-22 12:48 37.50339 70.07493 33135 ft 462 kts 135°
2026-04-22 12:48 37.48300 70.10617 33471 ft 462 kts 136°
2026-04-22 12:48 37.46255 70.13741 33806 ft 462 kts 136°
2026-04-22 12:49 37.44221 70.16855 34106 ft 461 kts 135°
2026-04-22 12:49 37.42188 70.19973 34401 ft 460 kts 135°
2026-04-22 12:49 37.40151 70.23095 34604 ft 463 kts 135°
2026-04-22 12:49 37.38102 70.26235 34801 ft 465 kts 135°
2026-04-22 12:50 37.36054 70.29374 35070 ft 464 kts 135°
2026-04-22 12:50 37.34008 70.32511 35359 ft 464 kts 135°
2026-04-22 12:50 37.31967 70.35634 35650 ft 462 kts 135°
2026-04-22 12:50 37.29924 70.38756 35931 ft 461 kts 135°
2026-04-22 12:51 37.27892 70.41850 36212 ft 460 kts 136°
2026-04-22 12:51 37.25851 70.44951 36495 ft 459 kts 136°
2026-04-22 12:51 37.23822 70.48030 36770 ft 458 kts 136°
2026-04-22 12:51 37.21799 70.51099 37037 ft 456 kts 136°
2026-04-22 12:52 37.19775 70.54167 37291 ft 456 kts 136°
2026-04-22 12:52 37.17748 70.57233 37470 ft 457 kts 136°
2026-04-22 12:52 37.15742 70.60266 37634 ft 458 kts 136°
2026-04-22 12:52 37.13710 70.63342 37886 ft 458 kts 136°
2026-04-22 12:53 37.11650 70.66456 38143 ft 457 kts 136°
2026-04-22 12:53 37.09621 70.69515 38397 ft 456 kts 136°
2026-04-22 12:53 37.07623 70.72527 38646 ft 455 kts 136°
2026-04-22 12:53 37.05599 70.75575 38814 ft 456 kts 135°
2026-04-22 12:54 37.03569 70.78630 38955 ft 457 kts 135°
2026-04-22 12:54 36.99500 70.84751 38992 ft 458 kts 135°
2026-04-22 12:55 36.96087 70.89883 38995 ft 459 kts 135°
2026-04-22 12:55 36.91311 70.97041 38994 ft 461 kts 135°
2026-04-22 12:56 36.87168 71.03238 38984 ft 461 kts 134°
2026-04-22 12:56 36.83053 71.09390 38975 ft 462 kts 135°
2026-04-22 12:57 36.78959 71.15494 38979 ft 462 kts 134°
2026-04-22 12:57 36.74824 71.21639 38979 ft 462 kts 134°
2026-04-22 12:58 36.70690 71.27771 38985 ft 462 kts 135°
2026-04-22 12:58 36.66547 71.33912 38957 ft 463 kts 134°
2026-04-22 12:59 36.62400 71.40057 38968 ft 463 kts 135°
2026-04-22 12:59 36.58925 71.45190 38984 ft 463 kts 135°
2026-04-22 13:00 36.54771 71.51319 38986 ft 464 kts 134°
2026-04-22 13:00 36.50604 71.57451 39022 ft 464 kts 135°
2026-04-22 13:01 36.46964 71.64113 39012 ft 473 kts 118°
2026-04-22 13:01 36.44987 71.71960 39052 ft 480 kts 106°
2026-04-22 13:02 36.43461 71.80027 39055 ft 480 kts 107°
2026-04-22 13:02 36.41927 71.88027 39062 ft 479 kts 106°
2026-04-22 13:03 36.40373 71.96095 39091 ft 482 kts 107°
2026-04-22 13:03 36.38811 72.04172 39061 ft 480 kts 107°
2026-04-22 13:04 36.37235 72.12265 39052 ft 483 kts 107°
2026-04-22 13:04 36.35668 72.20378 39050 ft 484 kts 106°
2026-04-22 13:05 36.34094 72.28492 39052 ft 484 kts 106°
2026-04-22 13:05 36.32495 72.36609 39060 ft 484 kts 106°
2026-04-22 13:06 36.30891 72.44717 39053 ft 485 kts 106°
2026-04-22 13:06 36.29294 72.52835 39057 ft 484 kts 106°
2026-04-22 13:07 36.27687 72.60945 39070 ft 485 kts 106°
2026-04-22 13:07 36.26077 72.69059 39075 ft 486 kts 105°
2026-04-22 13:08 36.24450 72.77184 39087 ft 486 kts 107°
2026-04-22 13:08 36.22812 72.85310 39089 ft 487 kts 107°
2026-04-22 13:09 36.21189 72.93390 39102 ft 487 kts 106°
2026-04-22 13:09 36.19543 73.01549 39123 ft 485 kts 106°
2026-04-22 13:10 36.17913 73.09590 39112 ft 484 kts 106°
2026-04-22 13:10 36.16272 73.17653 39110 ft 483 kts 106°
2026-04-22 13:11 36.14629 73.25704 39089 ft 483 kts 106°
2026-04-22 13:11 36.12979 73.33748 39103 ft 483 kts 106°
2026-04-22 13:12 36.11316 73.41805 39081 ft 483 kts 107°
2026-04-22 13:12 36.09661 73.49851 39084 ft 483 kts 106°
2026-04-22 13:13 36.08002 73.57898 39074 ft 483 kts 107°
2026-04-22 13:13 36.06330 73.65916 39077 ft 482 kts 106°
2026-04-22 13:14 36.04647 73.73939 39081 ft 482 kts 106°
2026-04-22 13:14 36.02964 73.81959 39063 ft 481 kts 106°
2026-04-22 13:15 36.01286 73.89959 39076 ft 482 kts 106°
2026-04-22 13:15 35.99605 73.97969 39060 ft 482 kts 106°
2026-04-22 13:16 35.97899 74.05979 39060 ft 482 kts 105°
2026-04-22 13:16 35.96192 74.13972 39050 ft 481 kts 105°
2026-04-22 13:17 35.94495 74.21957 39041 ft 481 kts 105°
2026-04-22 13:17 35.92774 74.29935 39044 ft 480 kts 108°
2026-04-22 13:18 35.89978 74.37341 39046 ft 476 kts 125°
2026-04-22 13:18 35.86337 74.44158 39038 ft 476 kts 125°
2026-04-22 13:19 35.82689 74.50979 39046 ft 477 kts 125°
2026-04-22 13:19 35.79060 74.57758 39046 ft 477 kts 125°
2026-04-22 13:20 35.75406 74.64574 39067 ft 477 kts 125°
2026-04-22 13:20 35.71745 74.71376 39086 ft 476 kts 125°
2026-04-22 13:21 35.68097 74.78153 39081 ft 475 kts 125°
2026-04-22 13:21 35.64445 74.84916 39132 ft 475 kts 125°
2026-04-22 13:22 35.60787 74.91672 39137 ft 474 kts 125°
2026-04-22 13:22 35.57131 74.98424 39138 ft 474 kts 125°
2026-04-22 13:23 35.53485 75.05152 39137 ft 474 kts 125°
2026-04-22 13:23 35.49825 75.11885 38620 ft 473 kts 125°
2026-04-22 13:23 35.48003 75.15234 37859 ft 474 kts 125°
2026-04-22 13:24 35.46167 75.18604 37057 ft 474 kts 124°
2026-04-22 13:24 35.44330 75.21974 36199 ft 476 kts 125°
2026-04-22 13:24 35.42485 75.25348 35434 ft 477 kts 124°
2026-04-22 13:24 35.40634 75.28721 34632 ft 479 kts 125°
2026-04-22 13:25 35.38769 75.32113 33792 ft 480 kts 125°
2026-04-22 13:25 35.36899 75.35517 32865 ft 480 kts 125°
2026-04-22 13:25 35.35039 75.38909 32003 ft 480 kts 125°
2026-04-22 13:25 35.33179 75.42300 31124 ft 478 kts 126°
2026-04-22 13:26 35.31327 75.45673 30251 ft 478 kts 125°
2026-04-22 13:26 35.29481 75.49036 29478 ft 473 kts 126°
2026-04-22 13:26 35.27676 75.52326 28740 ft 467 kts 126°
2026-04-22 13:26 35.25869 75.55618 28048 ft 461 kts 126°
2026-04-22 13:27 35.24089 75.58850 27603 ft 451 kts 126°
2026-04-22 13:27 35.22369 75.61969 27456 ft 434 kts 126°
2026-04-22 13:27 35.20702 75.64984 27136 ft 424 kts 126°
2026-04-22 13:27 35.19053 75.67958 26707 ft 419 kts 127°
2026-04-22 13:28 35.17424 75.70897 26243 ft 415 kts 127°
2026-04-22 13:28 35.15813 75.73800 25745 ft 412 kts 127°
2026-04-22 13:28 35.14210 75.76687 25288 ft 408 kts 127°
2026-04-22 13:28 35.12618 75.79547 24798 ft 406 kts 127°
2026-04-22 13:29 35.10992 75.82337 24309 ft 403 kts 129°
2026-04-22 13:29 35.09304 75.85073 23839 ft 400 kts 130°
2026-04-22 13:29 35.07642 75.87771 23341 ft 397 kts 130°
2026-04-22 13:29 35.05986 75.90453 22821 ft 394 kts 130°
2026-04-22 13:30 35.04341 75.93106 22316 ft 390 kts 130°
2026-04-22 13:30 35.02700 75.95725 21847 ft 387 kts 130°
2026-04-22 13:30 35.01076 75.98321 21393 ft 383 kts 130°
2026-04-22 13:30 34.99485 76.00863 20914 ft 380 kts 130°
2026-04-22 13:31 34.97878 76.03413 20472 ft 377 kts 130°
2026-04-22 13:31 34.96291 76.05932 19930 ft 373 kts 130°
2026-04-22 13:31 34.94578 76.08287 19403 ft 371 kts 137°
2026-04-22 13:31 34.92732 76.10493 18826 ft 372 kts 137°
2026-04-22 13:32 34.90872 76.12688 18247 ft 373 kts 138°
2026-04-22 13:32 34.88858 76.14675 17542 ft 374 kts 147°
2026-04-22 13:32 34.86727 76.16427 16757 ft 365 kts 147°
2026-04-22 13:32 34.84546 76.17936 15935 ft 358 kts 159°
2026-04-22 13:33 34.82242 76.18997 15128 ft 350 kts 163°
2026-04-22 13:33 34.79927 76.19852 14343 ft 346 kts 165°
2026-04-22 13:33 34.77639 76.20692 13530 ft 342 kts 159°
2026-04-22 13:33 34.75537 76.22006 12904 ft 337 kts 153°
2026-04-22 13:34 34.73564 76.23350 12730 ft 314 kts 147°
2026-04-22 13:34 34.71813 76.24799 12533 ft 295 kts 146°
2026-04-22 13:34 34.70162 76.26207 12379 ft 286 kts 143°
2026-04-22 13:34 34.68637 76.27694 12184 ft 277 kts 140°
2026-04-22 13:35 34.67281 76.29323 12075 ft 269 kts 133°
2026-04-22 13:35 34.66070 76.31153 12143 ft 282 kts 123°
2026-04-22 13:35 34.65121 76.33239 12134 ft 282 kts 115°
2026-04-22 13:35 34.64271 76.35379 12200 ft 278 kts 116°
2026-04-22 13:36 34.63516 76.37553 12325 ft 281 kts 105°
2026-04-22 13:36 34.63257 76.39892 12338 ft 281 kts 90°
2026-04-22 13:36 34.63262 76.42254 12334 ft 280 kts 89°
2026-04-22 13:36 34.63239 76.44611 12334 ft 279 kts 94°
2026-04-22 13:37 34.62766 76.46879 12329 ft 279 kts 117°
2026-04-22 13:37 34.61776 76.48906 12247 ft 279 kts 125°
2026-04-22 13:37 34.60605 76.50768 11796 ft 277 kts 130°
2026-04-22 13:37 34.59280 76.52405 11823 ft 271 kts 144°
2026-04-22 13:38 34.57717 76.53697 11834 ft 273 kts 142°
2026-04-22 13:38 34.55956 76.57686 11838 ft 276 kts 100°
2026-04-22 13:38 34.55424 76.59904 11831 ft 274 kts 119°
2026-04-22 13:39 34.54213 76.61655 11835 ft 271 kts 144°
2026-04-22 13:39 34.52736 76.63030 11922 ft 271 kts 140°
2026-04-22 13:39 34.51477 76.64727 12232 ft 275 kts 117°
2026-04-22 13:39 34.50694 76.66849 13227 ft 278 kts 118°
2026-04-22 13:40 34.49711 76.68945 13611 ft 286 kts 123°
2026-04-22 13:40 34.48500 76.70814 14588 ft 286 kts 134°
2026-04-22 13:40 34.46903 76.72446 14592 ft 323 kts 152°
2026-04-22 13:40 34.44609 76.73377 13947 ft 376 kts 171°
2026-04-22 13:41 34.41940 76.74153 13800 ft 407 kts 158°
2026-04-22 13:41 34.39593 76.75933 14803 ft 392 kts 138°
2026-04-22 13:41 34.37896 76.78361 15194 ft 365 kts 120°
2026-04-22 13:41 34.36815 76.81023 15079 ft 340 kts 118°
2026-04-22 13:42 34.35663 76.83390 14966 ft 315 kts 122°
2026-04-22 13:42 34.34536 76.85549 14850 ft 295 kts 122°
2026-04-22 13:42 34.33461 76.87602 14806 ft 282 kts 123°
2026-04-22 13:42 34.32447 76.89571 14625 ft 266 kts 122°
2026-04-22 13:43 34.31554 76.91456 14280 ft 256 kts 116°
2026-04-22 13:43 34.30978 76.93524 13602 ft 263 kts 103°
2026-04-22 13:43 34.30685 76.95714 12894 ft 264 kts 97°
2026-04-22 13:43 34.30436 76.97910 12377 ft 261 kts 101°
2026-04-22 13:44 34.30023 77.00001 12072 ft 250 kts 109°
2026-04-22 13:44 34.29277 77.01846 11738 ft 242 kts 128°
2026-04-22 13:44 34.28024 77.03196 11137 ft 247 kts 153°
2026-04-22 13:44 34.26684 77.04376 11167 ft 231 kts 127°
2026-04-22 13:45 34.25984 77.06108 11509 ft 236 kts 108°
2026-04-22 13:45 34.25423 77.07995 11523 ft 239 kts 111°
2026-04-22 13:45 34.24678 77.09824 11326 ft 242 kts 115°
2026-04-22 13:45 34.23964 77.11635 11168 ft 240 kts 113°
2026-04-22 13:46 34.23464 77.13513 11260 ft 232 kts 95°
2026-04-22 13:46 34.23475 77.15462 11542 ft 234 kts 85°
2026-04-22 13:46 34.23181 77.17389 11830 ft 240 kts 116°
2026-04-22 13:46 34.22287 77.19066 11847 ft 239 kts 125°
2026-04-22 13:47 34.21667 77.20202 11771 ft 238 kts 122°
2026-04-22 13:47 34.20771 77.21857 11668 ft 234 kts 125°
2026-04-22 13:47 34.19638 77.23857 11669 ft 201 kts 120°
2026-04-22 13:47 34.19074 77.25352 11508 ft 189 kts 113°
2026-04-22 13:48 34.18601 77.26780 11489 ft 178 kts 116°
2026-04-22 13:48 34.18238 77.28226 11532 ft 185 kts 97°
2026-04-22 13:48 34.18174 77.29258 11546 ft 177 kts 90°
2026-04-22 13:48 34.17984 77.30738 11553 ft 185 kts 115°
2026-04-22 13:49 34.17276 77.31995 11367 ft 180 kts 133°
2026-04-22 13:49 34.16498 77.33167 11196 ft 181 kts 130°
2026-04-22 13:49 34.15721 77.34474 11270 ft 199 kts 119°
2026-04-22 13:49 34.15206 77.36044 11587 ft 204 kts 112°
2026-04-22 13:50 34.14580 77.37589 11971 ft 209 kts 123°
2026-04-22 13:50 34.13833 77.39207 11925 ft 225 kts 113°
2026-04-22 13:50 34.13498 77.41051 12361 ft 227 kts 95°
2026-04-22 13:50 34.13358 77.42953 12565 ft 233 kts 96°
2026-04-22 13:51 34.13043 77.44817 12143 ft 221 kts 106°
2026-04-22 13:51 34.12648 77.46555 11941 ft 207 kts 107°
2026-04-22 13:51 34.12319 77.48167 11848 ft 192 kts 99°
2026-04-22 13:51 34.12259 77.49749 11614 ft 188 kts 81°
2026-04-22 13:52 34.12619 77.51268 11095 ft 189 kts 69°
2026-04-22 13:52 34.13043 77.52749 10680 ft 183 kts 68°
2026-04-22 13:52 34.13461 77.54117 10683 ft 160 kts 65°
2026-04-22 13:52 34.13789 77.55237 10780 ft 122 kts 72°
2026-04-22 13:53 34.14013 77.56024 10862 ft 75 kts 72°
2026-04-22 13:53 34.14094 77.56425 10895 ft 22 kts 97°
2026-04-22 13:53 34.14091 77.56421 10895 ft 7 kts 81°
2026-04-22 13:53 34.14078 77.56322 10888 ft 11 kts 92°
2026-04-22 13:54 34.14081 77.56324 10888 ft 1 kts 43°
2026-04-22 13:54 34.14087 77.56297 10886 ft 9 kts 261°
2026-04-22 13:54 34.14046 77.56160 10874 ft 24 kts 248°
2026-04-22 13:54 34.14042 77.56041 10865 ft 11 kts 297°
2026-04-22 13:55 34.14051 77.55915 10851 ft 20 kts 269°
2026-04-22 13:55 34.14049 77.55720 10828 ft 26 kts 269°
2026-04-22 13:55 34.14050 77.55516 10813 ft 23 kts 271°
2026-04-22 13:55 34.14095 77.55383 10804 ft 16 kts 311°
2026-04-22 13:56 34.14096 77.55322 10800 ft 0 kts 240°
2026-04-22 13:56 34.14086 77.55301 10797 ft 6 kts 245°
2026-04-22 13:57 34.14101 77.55265 10795 ft 0 kts 321°
2026-04-22 13:57 34.14103 77.55263 10795 ft 2 kts 324°
2026-04-22 13:57 34.14111 77.55257 10798 ft 0 kts 329°